Home > Weather > Ottawa > Past weeks

Flag for Canada Weather for the Past 2 Weeks in Ottawa, Ontario, Canada

Now
32 °F

Overcast.


Feels Like: 22 °F
Forecast: 17 / 29 °F
Wind: 15 mph from Southwest

Location: Ottawa Int'L. Ont.

Current Time: Feb 6, 2016 at 9:34:40 PM

Latest Report: Feb 6, 2016 at 8:00 PM


Visibility: 15 mi

Pressure: 30.07 "Hg

Humidity: 75%

Dew point: 25 °F

Location of OttawaLocation

Historic Weather in Ottawa — Graph

°F

Ottawa Temperature Yesterday

Maximum temperature yesterday: 27 °F (at 2:00 PM)
Minimum temperature yesterday: 16 °F (at 6:00 AM)
Average temperature yesterday: 22 °F

High & Low Weather Summary for the Past Weeks

 TemperatureHumidityPressure
High46 °F (Feb 3, 9:00 PM)100% (Jan 29, 7:00 AM)30.43 "Hg (Jan 29, 7:00 AM)
Low1 °F (Jan 24, 6:00 AM)47% (Feb 2, 3:00 PM)29.38 "Hg (Feb 1, 3:00 AM)
Average25 °F78%29.94 "Hg
* Reported Jan 22 8:00 PM — Feb 6 8:00 PM, Ottawa, Weather by CustomWeather, © 2016

Note: Actual official high and low records may vary slightly from our data, if they occured in-between our weather recording intervals... More about our weather records

Advertising

Ottawa Weather History for the Previous 24 Hours

 ConditionsComfort  
Time TempWeatherWind HumidityBarometerVisibility
8:00 PM
Sat, Feb 6
32 °FOvercast.15 mph75%30.07 "Hg15 mi
7:00 PM34 °FPartly cloudy.16 mph65%30.06 "Hg15 mi
6:00 PM34 °FPassing clouds.14 mph65%30.06 "Hg15 mi
5:00 PM34 °FBroken clouds.13 mph65%30.05 "Hg15 mi
4:00 PM34 °FPartly sunny.9 mph70%30.05 "Hg15 mi
3:00 PM36 °FBroken clouds.10 mph70%30.06 "Hg15 mi
2:00 PM32 °FOvercast.9 mph80%30.08 "Hg15 mi
1:00 PM32 °FBroken clouds.10 mph80%30.11 "Hg15 mi
12:00 PM30 °FLight snow. Broken clouds.6 mph80%30.14 "Hg10 mi
11:00 AM27 °FLight snow. Partly sunny.2 mph86%30.17 "Hg10 mi
10:00 AM27 °FLight snow. Mostly cloudy.2 mph86%30.19 "Hg5 mi
9:00 AM25 °FLight snow. Mostly cloudy.3 mph93%30.20 "Hg6 mi
8:00 AM25 °FLight snow. More clouds than sun.No wind86%30.21 "Hg3 mi
7:00 AM23 °FOvercast.3 mph86%30.21 "Hg15 mi
6:00 AM23 °FMostly cloudy.No wind86%30.21 "Hg15 mi
5:00 AM23 °FOvercast.3 mph86%30.21 "Hg15 mi
4:00 AM23 °FOvercast.2 mph86%30.20 "Hg15 mi
3:00 AM25 °FPassing clouds.5 mph80%30.22 "Hg15 mi
2:00 AM25 °FPassing clouds.7 mph74%30.19 "Hg15 mi
1:00 AM25 °FOvercast.6 mph74%30.21 "Hg15 mi
12:00 AM25 °FSnow flurries. Overcast.6 mph69%30.22 "Hg10 mi
11:00 PM
Fri, Feb 5
23 °FPassing clouds.6 mph68%30.23 "Hg15 mi
10:00 PM21 °FPassing clouds.5 mph68%30.24 "Hg15 mi
9:00 PM21 °FPassing clouds.6 mph68%30.26 "Hg15 mi
Weather by CustomWeather, © 2016

See weather overviewHow to use our weather pages